Home > Weather > Yakutsk > Past weeks

Flag for Russia Weather for the Past 2 Weeks in Yakutsk, Russia

Now
30 °F

Partly sunny.


Feels Like: 21 °F
Forecast: 31 / 45 °F
Wind: 10 mph from Southwest

Location: Jakutsk

Current Time: May 5, 2016 at 8:08:36 AM

Latest Report: May 5, 2016 at 7:30 AM


Visibility: N/A

Pressure: 29.74 "Hg

Humidity: 93%

Dew Point: 28 °F

Location of YakutskLocation

Historic Weather in Yakutsk — Graph

°F

Yakutsk Temperature Yesterday

Maximum temperature yesterday: 48 °F (at 3:00 PM)
Minimum temperature yesterday: 23 °F (at 3:00 AM)
Average temperature yesterday: 38 °F

High & Low Weather Summary for the Past Weeks

 TemperatureHumidityPressure
High66 °F (Apr 29, 2:00 PM)100% (Apr 24, 3:30 AM)30.33 "Hg (Apr 24, 3:30 AM)
Low23 °F (Apr 21, 5:00 AM)14% (Apr 29, 2:00 PM)29.42 "Hg (May 1, 12:30 PM)
Average42 °F53%29.84 "Hg
* Reported Apr 20 3:00 AM — May 5 3:00 AM, Yakutsk, Weather by CustomWeather, © 2016

Note: Actual official high and low records may vary slightly from our data, if they occured in-between our weather recording intervals... More about our weather records

Advertising

Yakutsk Weather History for the Previous 24 Hours

Scroll right to see more
 ConditionsComfort  
Time TempWeatherWind HumidityBarometerVisibility
3:00 AM
Thu, May 5
30 °FSnow flurries. Partly sunny.8 mph100%29.74 "HgN/A
2:30 AM32 °FChilly.10 mph93%29.74 "Hg1 mi
1:30 AM32 °FChilly.10 mph100%29.74 "Hg1 mi
1:00 AM32 °FChilly.10 mph100%29.74 "Hg1 mi
12:30 AM32 °FChilly.13 mph100%29.71 "Hg1 mi
11:30 PM
Wed, May 4
32 °FChilly.15 mph100%29.71 "Hg1 mi
11:00 PM32 °FSnow showers. Dense fog.13 mph100%29.71 "Hg1 mi
10:30 PM34 °FSnow flurries. Passing clouds.13 mph93%29.71 "Hg3 mi
10:00 PM37 °FSprinkles. Passing clouds.10 mph87%29.71 "HgN/A
9:30 PM41 °FPassing clouds.6 mph70%29.71 "HgN/A
8:30 PM45 °FPassing clouds.3 mph46%29.68 "HgN/A
8:00 PM46 °FPassing clouds.1 mph37%29.68 "HgN/A
7:30 PM46 °FScattered clouds.1 mph34%29.68 "HgN/A
7:00 PM46 °FScattered clouds.1 mph34%29.68 "HgN/A
6:30 PM46 °FScattered clouds.1 mph32%29.68 "HgN/A
6:00 PM48 °FScattered clouds.1 mph25%29.68 "HgN/A
5:00 PM48 °FSunny.No wind25%29.68 "Hg10 mi
4:30 PM48 °FSunny.1 mph25%29.68 "Hg10 mi
4:00 PM48 °FSunny.1 mph25%29.68 "Hg10 mi
3:30 PM48 °FSunny.1 mph25%29.68 "Hg10 mi
3:00 PM48 °FPassing clouds.3 mph23%29.68 "HgN/A
2:00 PM46 °FSunny.3 mph27%29.71 "Hg10 mi
1:30 PM46 °FSunny.3 mph27%29.71 "Hg10 mi
1:00 PM46 °FSunny.6 mph27%29.71 "Hg10 mi
12:30 PM46 °FSunny.6 mph27%29.74 "Hg10 mi
12:00 PM46 °FPassing clouds.3 mph32%29.74 "HgN/A
11:30 AM46 °FPassing clouds.6 mph29%29.74 "HgN/A
11:00 AM46 °FPassing clouds.6 mph32%29.74 "HgN/A
10:30 AM45 °FSunny.3 mph34%29.77 "Hg10 mi
10:00 AM45 °FPassing clouds.3 mph34%29.77 "HgN/A
9:30 AM43 °FPassing clouds.3 mph39%29.77 "HgN/A
9:00 AM41 °FPassing clouds.3 mph49%29.77 "HgN/A
8:30 AM39 °FSunny.3 mph52%29.77 "Hg10 mi
8:00 AM37 °FSunny.1 mph56%29.77 "Hg10 mi
Weather by CustomWeather, © 2016

See weather overviewHow to use our weather pages